Pompano Beach, FL

6:09 PM EDT on July 25, 2017 (GMT -0400)
Pompano Beach

Weather History for KPMP - February, 2014

Change the Weather History Date:

Friday, February 7, 2014

  Actual Average Record
Temperature  
Mean Temperature 75 °F -  
Max Temperature 80 °F 77 °F 89 °F (1974)
Min Temperature 70 °F 59 °F 37 °F (1978)
Cooling Degree Days 10    
Growing Degree Days 25 (Base 50)    
Moisture  
Dew Point 69 °F    
Average Humidity 83    
Maximum Humidity 94    
Minimum Humidity 69    
Precipitation  
Precipitation 0.00 in - - ()
Sea Level Pressure  
Sea Level Pressure 30.10 in    
Wind  
Wind Speed 3 mph (NNE)    
Max Wind Speed 9 mph    
Max Gust Speed -    
Visibility 9 miles    
Events      
Averages and records for this station are not official NWS values.
T = Trace of Precipitation, MM = Missing Value Source: NWS Daily Summary

Daily Weather History Graph

Daily Weather History Graph

Search for Another Location

Airport or City:

Trip Planner

Search our weather history database for the weather conditions in past years. The results will help you decide how hot, cold, wet, or windy it might be!

Date:

Astronomy

Feb. 07, 2014 Rise Set
Actual Time 7:01 AM EST 6:07 PM EST
Civil Twilight 6:37 AM EST 6:31 PM EST
Nautical Twilight 6:10 AM EST 6:59 PM EST
Astronomical Twilight 5:43 AM EST 7:26 PM EST
Moon 12:23 PM EST (2/7) 1:11 AM EST (2/7)
Length of Visible Light 11h 54m
Length of Day
11h 06m
First Quarter, 59% of the Moon is Illuminated
Feb 7
First Quarter
Feb 14
Full
Feb 22
Last Quarter
Mar 1
New
Mar 8
First Quarter

Hourly Weather History & Observations

Time (EST) Temp. Heat Index Dew Point Humidity Pressure Visibility Wind Dir Wind Speed Gust Speed Precip Events Conditions
12:53 AM 73.9 °F - 69.1 °F 85% 30.09 in 10.0 mi Calm Calm - N/A   Scattered Clouds
1:53 AM 73.0 °F - 69.1 °F 87% 30.07 in 10.0 mi Calm Calm - N/A   Partly Cloudy
2:53 AM 72.0 °F - 69.1 °F 91% 30.06 in 10.0 mi Calm Calm - N/A   Mostly Cloudy
3:27 AM 71.6 °F - 69.8 °F 94% 30.06 in 10.0 mi Calm Calm - N/A   Scattered Clouds
3:39 AM 71.6 °F - 68.0 °F 88% 30.06 in 10.0 mi WNW 3.5 mph - N/A   Mostly Cloudy
3:53 AM 71.1 °F - 68.0 °F 90% 30.07 in 10.0 mi Calm Calm - N/A   Scattered Clouds
4:24 AM 71.6 °F - 68.0 °F 88% 30.07 in 10.0 mi Calm Calm - N/A   Mostly Cloudy
4:34 AM 71.6 °F - 68.0 °F 88% 30.07 in 10.0 mi WNW 8.1 mph - N/A   Scattered Clouds
4:53 AM 71.1 °F - 68.0 °F 90% 30.07 in 10.0 mi NW 8.1 mph - N/A   Partly Cloudy
5:06 AM 71.6 °F - 69.8 °F 94% 30.07 in 3.0 mi NW 5.8 mph - N/A   Mostly Cloudy
5:53 AM 72.0 °F - 70.0 °F 93% 30.09 in 8.0 mi North 3.5 mph - N/A   Overcast
6:53 AM 71.1 °F - 69.1 °F 93% 30.10 in 6.0 mi North 4.6 mph - N/A   Overcast
7:36 AM 71.6 °F - 68.0 °F 88% 30.11 in 1.8 mi North 5.8 mph - N/A   Overcast
7:53 AM 70.0 °F - 68.0 °F 93% 30.12 in 2.0 mi NNW 6.9 mph - N/A   Overcast
8:53 AM 71.1 °F - 68.0 °F 90% 30.14 in 4.0 mi North 6.9 mph - N/A   Overcast
9:11 AM 71.6 °F - 68.0 °F 88% 30.14 in 5.0 mi North 5.8 mph - N/A   Overcast
9:53 AM 75.0 °F - 68.0 °F 79% 30.15 in 8.0 mi Variable 4.6 mph - N/A   Mostly Cloudy
10:00 AM 75.2 °F - 68.0 °F 78% 30.14 in 8.0 mi NNW 3.5 mph - N/A   Scattered Clouds
10:53 AM 79.0 °F - 69.1 °F 72% 30.14 in 10.0 mi Calm Calm - N/A   Scattered Clouds
11:53 AM 79.0 °F - 68.0 °F 69% 30.13 in 10.0 mi ENE 8.1 mph - N/A   Scattered Clouds
12:53 PM 79.0 °F - 68.0 °F 69% 30.10 in 10.0 mi NE 8.1 mph - N/A   Clear
1:53 PM 79.0 °F - 69.1 °F 72% 30.08 in 10.0 mi ENE 8.1 mph - N/A   Scattered Clouds
2:53 PM 80.1 °F 82.9 °F 69.1 °F 69% 30.07 in 10.0 mi NE 6.9 mph - N/A   Scattered Clouds
3:53 PM 79.0 °F - 69.1 °F 72% 30.07 in 10.0 mi East 9.2 mph - N/A   Scattered Clouds
4:53 PM 79.0 °F - 69.1 °F 72% 30.07 in 10.0 mi ESE 6.9 mph - N/A   Clear
5:53 PM 77.0 °F - 69.1 °F 76% 30.09 in 10.0 mi East 5.8 mph - N/A   Clear
6:53 PM 75.9 °F - 69.1 °F 79% 30.09 in 10.0 mi East 5.8 mph - N/A   Scattered Clouds
7:53 PM 75.9 °F - 69.1 °F 79% 30.10 in 10.0 mi ENE 4.6 mph - N/A   Clear
8:53 PM 75.9 °F - 69.1 °F 79% 30.11 in 10.0 mi NE 6.9 mph - N/A   Scattered Clouds
9:00 PM 75.2 °F - 69.8 °F 83% 30.11 in 10.0 mi NNE 5.8 mph - N/A   Mostly Cloudy
9:43 PM 75.2 °F - 69.8 °F 83% 30.11 in 10.0 mi NNE 6.9 mph - N/A   Scattered Clouds
9:53 PM 75.0 °F - 70.0 °F 84% 30.11 in 10.0 mi NNE 5.8 mph - N/A   Partly Cloudy
10:53 PM 73.9 °F - 70.0 °F 87% 30.11 in 10.0 mi NNE 4.6 mph - N/A   Scattered Clouds
11:53 PM 73.9 °F - 70.0 °F 87% 30.11 in 9.0 mi North 3.5 mph - N/A   Scattered Clouds